Regional Weather Roundup
Issued by NWS

Home | Current Version | Previous Version | Graphics & Text | Print | Product List | Glossary On
Versions: 1 2 3 4 5 6 7 8 9 10 11 12 13 14 15 16 17 18 19 20 21 22 23 24 25 26 27 28 29 30 31 32 33 34 35 36 37 38 39 40 41 42 43 44 45 46 47 48 49 50
000
ASUS43 KBIS 080810
RWRND

NORTH DAKOTA REGIONAL WEATHER ROUNDUP
NATIONAL WEATHER SERVICE BISMARCK ND
200 AM CST MON FEB 08 2016

NOTE: "FAIR" INDICATES FEW OR NO CLOUDS BELOW 12,000 FEET WITH NO
SIGNIFICANT WEATHER AND/OR OBSTRUCTIONS TO VISIBILITY.


NDZ001>003-009>011-017-080900-
NORTHWEST NORTH DAKOTA

CITY           SKY/WX    TMP DP  RH WIND       PRES   REMARKS
WILLISTON      CLEAR     25  17  72 NW18G28   30.29F WCI  11
MINOT          CLEAR     27  16  63 NW21G29   30.18S WCI  13
MINOT AFB      CLEAR     25  19  80 NW25G32   30.16F WCI   9
$$

NDZ018>021-031>035-040>046-080900-
SOUTHWEST NORTH DAKOTA

CITY           SKY/WX    TMP DP  RH WIND       PRES   REMARKS
BISMARCK       CLEAR     29  17  61 NW21G32   30.20R WCI  16
DICKINSON      CLEAR     18  13  80 W10       30.25F WCI   6
GARRISON         N/A     23  17  78 NW21      30.20R WCI   8
HETTINGER ARPT CLEAR     22  14  71 NW14      30.27S WCI   9
$$

NDZ004>008-012>016-024-026-027-054-080900-
NORTHEAST NORTH DAKOTA

CITY           SKY/WX    TMP DP  RH WIND       PRES   REMARKS
GRAND FORKS    LGT SNOW  15   9  76 N37G46    30.07R BLWGSNOWWCI  -7
GRND FRKS AFB  LGT SNOW  14   9  79 N30G38    30.08R WCI  -7
DEVILS LAKE    FLURRIES  18  13  80 N20       30.10S WCI   2
$$

NDZ022-023-025-028>030-036>039-047>053-080900-
SOUTHEAST NORTH DAKOTA

CITY           SKY/WX    TMP DP  RH WIND       PRES   REMARKS
FARGO          LGT SNOW  15  11  83 NW25G33   30.05R VSB 3/4 WCI  -4
JAMESTOWN      CLOUDY    20  13  74 N22G31    30.07R WCI   3
$$




USA.gov is the U.S. government's official web portal to all federal, state and local government web resources and services.